MXY721 KCHS-KPVD

Flight info

Callsign MXY721
Flight time 1h 44m
Altitude 39000
Route PLMTO3 CRE JOHAR Q109 DFENC SAWED Q97 ZJAAY Q167 ORCHA JORDN JORDN2
Aircraft E190/M-SDE3GILORVW/S

Departure

Time 2026-04-30 00:20
Airport Charleston International Airport (KCHS)

Arrival

Time 2026-04-30 02:04
Airport Rhode Island T. F. Green International Airport (KPVD)
Time Latitude Longitude Altitude Speed Heading
2026-04-29 23:46 32.88539 -80.03645 40 ft 0 kts 160°
2026-04-30 00:09 32.88557 -80.03654 40 ft 4 kts 144°
2026-04-30 00:09 32.88571 -80.03673 40 ft 4 kts 75°
2026-04-30 00:10 32.88566 -80.03682 40 ft 1 kts 19°
2026-04-30 00:10 32.88564 -80.03683 40 ft 0 kts 19°
2026-04-30 00:12 32.88573 -80.03679 40 ft 3 kts 19°
2026-04-30 00:13 32.88605 -80.03669 39 ft 8 kts 11°
2026-04-30 00:13 32.88675 -80.03658 40 ft 14 kts
2026-04-30 00:13 32.88786 -80.03640 40 ft 18 kts
2026-04-30 00:13 32.88929 -80.03616 40 ft 25 kts
2026-04-30 00:14 32.89110 -80.03598 39 ft 27 kts
2026-04-30 00:14 32.89300 -80.03585 40 ft 28 kts
2026-04-30 00:14 32.89493 -80.03586 39 ft 24 kts
2026-04-30 00:14 32.89628 -80.03619 37 ft 19 kts 305°
2026-04-30 00:15 32.89650 -80.03768 39 ft 19 kts 275°
2026-04-30 00:15 32.89667 -80.03947 39 ft 24 kts 277°
2026-04-30 00:15 32.89688 -80.04156 38 ft 26 kts 276°
2026-04-30 00:15 32.89711 -80.04375 40 ft 24 kts 276°
2026-04-30 00:16 32.89790 -80.04453 40 ft 19 kts 360°
2026-04-30 00:16 32.89939 -80.04449 38 ft 25 kts
2026-04-30 00:16 32.90126 -80.04444 38 ft 28 kts
2026-04-30 00:16 32.90323 -80.04441 37 ft 29 kts
2026-04-30 00:17 32.90494 -80.04503 39 ft 25 kts 329°
2026-04-30 00:17 32.90636 -80.04609 39 ft 23 kts 326°
2026-04-30 00:17 32.90772 -80.04714 40 ft 25 kts 327°
2026-04-30 00:17 32.90927 -80.04831 40 ft 28 kts 328°
2026-04-30 00:18 32.91093 -80.04958 39 ft 28 kts 327°
2026-04-30 00:18 32.91186 -80.05001 39 ft 12 kts 18°
2026-04-30 00:18 32.91251 -80.04901 40 ft 19 kts 58°
2026-04-30 00:18 32.91281 -80.04794 38 ft 9 kts 131°
2026-04-30 00:19 32.91257 -80.04775 40 ft 0 kts 146°
2026-04-30 00:19 32.91143 -80.04687 42 ft 50 kts 148°
2026-04-30 00:19 32.90619 -80.04285 38 ft 130 kts 147°
2026-04-30 00:19 32.89681 -80.03616 358 ft 177 kts 152°
2026-04-30 00:20 32.88603 -80.02670 1133 ft 208 kts 137°
2026-04-30 00:20 32.87904 -80.01063 1779 ft 236 kts 100°
2026-04-30 00:20 32.88032 -79.99061 2748 ft 257 kts 76°
2026-04-30 00:20 32.88637 -79.96984 3618 ft 280 kts 68°
2026-04-30 00:21 32.89399 -79.94788 4647 ft 292 kts 65°
2026-04-30 00:21 32.90221 -79.92549 5836 ft 298 kts 64°
2026-04-30 00:21 32.91067 -79.90285 7028 ft 301 kts 63°
2026-04-30 00:21 32.91946 -79.88016 8224 ft 302 kts 62°
2026-04-30 00:22 32.92890 -79.85770 9408 ft 304 kts 58°
2026-04-30 00:22 32.94095 -79.83696 10448 ft 313 kts 48°
2026-04-30 00:22 32.95478 -79.81572 11043 ft 334 kts 49°
2026-04-30 00:22 32.96868 -79.79356 12096 ft 337 kts 49°
2026-04-30 00:23 32.98274 -79.77090 13099 ft 343 kts 49°
2026-04-30 00:23 32.99707 -79.74774 14085 ft 350 kts 49°
2026-04-30 00:23 33.01162 -79.72419 15114 ft 356 kts 49°
2026-04-30 00:23 33.02580 -79.69962 16123 ft 364 kts 53°
2026-04-30 00:24 33.03946 -79.67393 17074 ft 369 kts 53°
2026-04-30 00:24 33.05347 -79.64801 17946 ft 375 kts 53°
2026-04-30 00:24 33.06766 -79.62173 18773 ft 380 kts 52°
2026-04-30 00:24 33.08209 -79.59500 19547 ft 386 kts 53°
2026-04-30 00:25 33.09676 -79.56785 20264 ft 393 kts 52°
2026-04-30 00:25 33.11167 -79.54027 20991 ft 399 kts 53°
2026-04-30 00:25 33.12682 -79.51222 21656 ft 405 kts 53°
2026-04-30 00:25 33.14217 -79.48378 22326 ft 410 kts 53°
2026-04-30 00:26 33.15773 -79.45490 22923 ft 417 kts 53°
2026-04-30 00:26 33.17349 -79.42568 23528 ft 421 kts 53°
2026-04-30 00:26 33.18943 -79.39612 24064 ft 427 kts 53°
2026-04-30 00:26 33.20740 -79.36747 24204 ft 435 kts 41°
2026-04-30 00:27 33.22996 -79.34298 24458 ft 443 kts 35°
2026-04-30 00:27 33.25351 -79.31880 24883 ft 450 kts 36°
2026-04-30 00:27 33.27718 -79.29410 25358 ft 454 kts 36°
2026-04-30 00:27 33.30103 -79.26910 25859 ft 458 kts 36°
2026-04-30 00:28 33.32472 -79.24423 26352 ft 461 kts 36°
2026-04-30 00:28 33.34891 -79.21880 26775 ft 465 kts 36°
2026-04-30 00:28 33.37358 -79.19279 27203 ft 469 kts 36°
2026-04-30 00:28 33.39778 -79.16724 27603 ft 472 kts 36°
2026-04-30 00:29 33.42248 -79.14115 27983 ft 476 kts 36°
2026-04-30 00:29 33.44771 -79.11448 28377 ft 478 kts 36°
2026-04-30 00:29 33.47272 -79.08802 28704 ft 481 kts 36°
2026-04-30 00:29 33.49751 -79.06176 29078 ft 483 kts 36°
2026-04-30 00:30 33.52264 -79.03508 29507 ft 483 kts 36°
2026-04-30 00:30 33.54778 -79.00842 29931 ft 483 kts 36°
2026-04-30 00:30 33.57290 -78.98174 30363 ft 482 kts 36°
2026-04-30 00:30 33.59794 -78.95512 30890 ft 479 kts 36°
2026-04-30 00:31 33.62285 -78.92861 31371 ft 478 kts 36°
2026-04-30 00:31 33.64763 -78.90225 31886 ft 475 kts 35°
2026-04-30 00:31 33.67233 -78.87597 32343 ft 474 kts 35°
2026-04-30 00:31 33.69695 -78.84972 32764 ft 472 kts 36°
2026-04-30 00:32 33.72147 -78.82357 33193 ft 471 kts 35°
2026-04-30 00:32 33.74601 -78.79744 33534 ft 471 kts 35°
2026-04-30 00:32 33.77045 -78.77134 33911 ft 470 kts 35°
2026-04-30 00:32 33.79489 -78.74537 34234 ft 468 kts 33°
2026-04-30 00:33 33.82166 -78.72439 34467 ft 452 kts 15°
2026-04-30 00:33 33.85126 -78.71432 34783 ft 437 kts
2026-04-30 00:33 33.88096 -78.70700 35116 ft 435 kts
2026-04-30 00:33 33.91054 -78.69965 35443 ft 434 kts
2026-04-30 00:34 33.94008 -78.69229 35752 ft 432 kts
2026-04-30 00:34 33.96951 -78.68489 36064 ft 431 kts
2026-04-30 00:34 33.99880 -78.67752 36343 ft 430 kts
2026-04-30 00:34 34.02809 -78.67020 36604 ft 430 kts
2026-04-30 00:35 34.05735 -78.66297 36875 ft 429 kts
2026-04-30 00:35 34.08642 -78.65575 37280 ft 424 kts
2026-04-30 00:35 34.11515 -78.64858 37698 ft 420 kts
2026-04-30 00:35 34.14367 -78.64145 38079 ft 416 kts
2026-04-30 00:36 34.17196 -78.63436 38353 ft 415 kts
2026-04-30 00:36 34.20018 -78.62724 38601 ft 414 kts
2026-04-30 00:36 34.22842 -78.62012 38809 ft 414 kts
2026-04-30 00:36 34.25648 -78.61303 38984 ft 413 kts
2026-04-30 00:37 34.28466 -78.60587 38971 ft 414 kts
2026-04-30 00:37 34.33974 -78.58377 38946 ft 441 kts 25°
2026-04-30 00:38 34.38911 -78.53787 38974 ft 450 kts 29°
2026-04-30 00:38 34.43821 -78.49101 38863 ft 448 kts 29°
2026-04-30 00:39 34.48724 -78.44432 38869 ft 448 kts 29°
2026-04-30 00:39 34.53627 -78.39759 38868 ft 448 kts 29°
2026-04-30 00:40 34.58529 -78.35082 38869 ft 449 kts 29°
2026-04-30 00:40 34.63437 -78.30396 38846 ft 449 kts 29°
2026-04-30 00:41 34.68344 -78.25707 38862 ft 449 kts 29°
2026-04-30 00:41 34.73252 -78.21008 38868 ft 450 kts 29°
2026-04-30 00:42 34.78169 -78.16291 38869 ft 450 kts 29°
2026-04-30 00:42 34.83092 -78.11562 38871 ft 451 kts 29°
2026-04-30 00:43 34.88026 -78.06830 38871 ft 452 kts 29°
2026-04-30 00:43 34.92982 -78.02108 38870 ft 453 kts 29°
2026-04-30 00:44 34.97943 -77.97370 38868 ft 454 kts 30°
2026-04-30 00:44 35.02913 -77.92616 38869 ft 454 kts 30°
2026-04-30 00:45 35.07893 -77.87842 38873 ft 456 kts 30°
2026-04-30 00:45 35.12882 -77.83052 38871 ft 456 kts 30°
2026-04-30 00:46 35.17879 -77.78247 38871 ft 457 kts 30°
2026-04-30 00:46 35.22853 -77.73455 38870 ft 458 kts 30°
2026-04-30 00:47 35.27867 -77.68619 38874 ft 460 kts 30°
2026-04-30 00:47 35.32892 -77.63763 38872 ft 461 kts 30°
2026-04-30 00:48 35.37923 -77.58888 38873 ft 461 kts 30°
2026-04-30 00:48 35.42958 -77.54009 38872 ft 462 kts 30°
2026-04-30 00:49 35.47999 -77.49115 38871 ft 462 kts 30°
2026-04-30 00:49 35.53045 -77.44204 38861 ft 463 kts 30°
2026-04-30 00:50 35.58095 -77.39286 38860 ft 464 kts 30°
2026-04-30 00:50 35.63147 -77.34357 38861 ft 464 kts 30°
2026-04-30 00:51 35.68163 -77.29452 38861 ft 464 kts 30°
2026-04-30 00:51 35.73215 -77.24504 38867 ft 465 kts 31°
2026-04-30 00:52 35.78266 -77.19549 38874 ft 464 kts 31°
2026-04-30 00:52 35.83315 -77.14589 38869 ft 464 kts 31°
2026-04-30 00:53 35.88368 -77.09617 38871 ft 465 kts 31°
2026-04-30 00:53 35.93510 -77.04852 38889 ft 457 kts 23°
2026-04-30 00:54 35.98980 -77.00916 38866 ft 456 kts 22°
2026-04-30 00:54 36.04460 -76.96960 38869 ft 457 kts 22°
2026-04-30 00:55 36.09948 -76.92973 38882 ft 458 kts 22°
2026-04-30 00:55 36.18197 -76.86952 38883 ft 460 kts 22°
2026-04-30 00:56 36.23714 -76.82920 38884 ft 461 kts 22°
2026-04-30 00:56 36.29247 -76.78869 38882 ft 463 kts 22°
2026-04-30 00:57 36.34792 -76.74800 38880 ft 464 kts 22°
2026-04-30 00:57 36.40344 -76.70719 38891 ft 464 kts 22°
2026-04-30 00:58 36.45906 -76.66620 38889 ft 465 kts 23°
2026-04-30 00:58 36.51470 -76.62518 38890 ft 466 kts 23°
2026-04-30 00:59 36.57002 -76.58433 38892 ft 466 kts 23°
2026-04-30 00:59 36.62576 -76.54306 38887 ft 466 kts 23°
2026-04-30 01:00 36.68149 -76.50169 38890 ft 466 kts 23°
2026-04-30 01:00 36.73728 -76.46029 38890 ft 467 kts 23°
2026-04-30 01:01 36.79313 -76.41879 38893 ft 467 kts 23°
2026-04-30 01:01 36.84904 -76.37712 38886 ft 468 kts 23°
2026-04-30 01:02 36.89555 -76.34240 38879 ft 469 kts 23°
2026-04-30 01:02 36.95155 -76.30059 38867 ft 469 kts 23°
2026-04-30 01:03 37.00764 -76.25854 38873 ft 470 kts 23°
2026-04-30 01:03 37.06381 -76.21639 38871 ft 471 kts 24°
2026-04-30 01:04 37.12008 -76.17417 38873 ft 472 kts 24°
2026-04-30 01:04 37.17605 -76.13200 38869 ft 473 kts 24°
2026-04-30 01:05 37.23254 -76.08939 38876 ft 474 kts 24°
2026-04-30 01:05 37.28909 -76.04667 38871 ft 475 kts 24°
2026-04-30 01:06 37.34575 -76.00380 38885 ft 476 kts 24°
2026-04-30 01:06 37.40252 -75.96078 38891 ft 477 kts 24°
2026-04-30 01:07 37.45936 -75.91755 38892 ft 478 kts 24°
2026-04-30 01:07 37.51634 -75.87419 38902 ft 479 kts 24°
2026-04-30 01:08 37.54385 -75.85327 38896 ft 480 kts 24°
2026-04-30 01:09 37.57922 -75.82308 38988 ft 486 kts 36°
2026-04-30 01:10 37.60183 -75.79071 38541 ft 503 kts 57°
2026-04-30 01:10 37.62119 -75.75412 38141 ft 491 kts 40°
2026-04-30 01:10 37.64759 -75.73121 39085 ft 432 kts 11°
2026-04-30 01:10 37.67545 -75.72042 39721 ft 416 kts
2026-04-30 01:11 37.70405 -75.71199 39384 ft 431 kts
2026-04-30 01:11 37.73352 -75.70030 38774 ft 459 kts 16°
2026-04-30 01:11 37.76214 -75.68245 39041 ft 458 kts 19°
2026-04-30 01:11 37.79068 -75.66342 38877 ft 468 kts 21°
2026-04-30 01:12 37.84746 -75.62279 38908 ft 476 kts 24°
2026-04-30 01:12 37.90306 -75.57551 38895 ft 483 kts 28°
2026-04-30 01:13 37.95842 -75.52723 38894 ft 483 kts 28°
2026-04-30 01:13 38.01376 -75.47884 38898 ft 483 kts 28°
2026-04-30 01:14 38.06910 -75.43018 38901 ft 486 kts 30°
2026-04-30 01:14 38.12327 -75.37868 38904 ft 486 kts 31°
2026-04-30 01:15 38.17737 -75.32731 38902 ft 485 kts 31°
2026-04-30 01:15 38.23145 -75.27607 38900 ft 484 kts 31°
2026-04-30 01:16 38.28551 -75.22479 38902 ft 485 kts 31°
2026-04-30 01:16 38.33956 -75.17341 38903 ft 485 kts 31°
2026-04-30 01:17 38.39358 -75.12196 38905 ft 485 kts 31°
2026-04-30 01:17 38.44722 -75.07086 38908 ft 484 kts 31°
2026-04-30 01:18 38.49992 -75.01710 38909 ft 488 kts 36°
2026-04-30 01:18 38.55121 -74.96059 38902 ft 486 kts 34°
2026-04-30 01:19 38.60372 -74.90622 38901 ft 486 kts 33°
2026-04-30 01:19 38.65615 -74.85178 38906 ft 485 kts 33°
2026-04-30 01:20 38.70858 -74.79725 38911 ft 485 kts 34°
2026-04-30 01:20 38.76092 -74.74257 38920 ft 487 kts 36°
2026-04-30 01:21 38.81092 -74.68362 38919 ft 488 kts 38°
2026-04-30 01:21 38.86084 -74.62458 38919 ft 488 kts 38°
2026-04-30 01:22 38.91082 -74.56555 38916 ft 488 kts 38°
2026-04-30 01:22 38.96109 -74.50708 38929 ft 486 kts 34°
2026-04-30 01:23 39.01318 -74.45176 38916 ft 487 kts 34°
2026-04-30 01:23 39.06524 -74.39599 38919 ft 487 kts 34°
2026-04-30 01:24 39.11722 -74.34003 38931 ft 487 kts 34°
2026-04-30 01:24 39.16919 -74.28388 38931 ft 488 kts 34°
2026-04-30 01:25 39.22121 -74.22758 38927 ft 489 kts 35°
2026-04-30 01:25 39.27291 -74.17147 38928 ft 489 kts 35°
2026-04-30 01:26 39.32492 -74.11491 38917 ft 489 kts 35°
2026-04-30 01:26 39.37696 -74.05822 38930 ft 489 kts 35°
2026-04-30 01:27 39.42902 -74.00138 38928 ft 490 kts 35°
2026-04-30 01:27 39.48099 -73.94410 38768 ft 494 kts 35°
2026-04-30 01:28 39.50707 -73.91531 38520 ft 492 kts 36°
2026-04-30 01:28 39.53308 -73.88660 38196 ft 491 kts 36°
2026-04-30 01:28 39.55901 -73.85791 37835 ft 489 kts 36°
2026-04-30 01:28 39.58471 -73.82946 37626 ft 483 kts 36°
2026-04-30 01:29 39.61021 -73.80123 37414 ft 483 kts 36°
2026-04-30 01:29 39.63573 -73.77295 37199 ft 482 kts 36°
2026-04-30 01:29 39.66114 -73.74475 37074 ft 481 kts 36°
2026-04-30 01:29 39.68659 -73.71651 36984 ft 481 kts 36°
2026-04-30 01:30 39.73733 -73.66006 37011 ft 482 kts 36°
2026-04-30 01:30 39.78796 -73.60367 37013 ft 483 kts 36°
2026-04-30 01:31 39.83891 -73.54680 36929 ft 482 kts 36°
2026-04-30 01:31 39.88978 -73.49006 36933 ft 482 kts 36°
2026-04-30 01:32 39.94069 -73.43329 36935 ft 482 kts 36°
2026-04-30 01:32 39.99153 -73.37646 36941 ft 481 kts 36°
2026-04-30 01:33 40.04231 -73.31961 36955 ft 480 kts 36°
2026-04-30 01:33 40.09291 -73.26282 36951 ft 480 kts 36°
2026-04-30 01:34 40.14344 -73.20591 36954 ft 479 kts 36°
2026-04-30 01:34 40.19387 -73.14901 36941 ft 479 kts 36°
2026-04-30 01:35 40.24421 -73.09204 36903 ft 480 kts 36°
2026-04-30 01:35 40.26957 -73.06331 36429 ft 483 kts 36°
2026-04-30 01:35 40.29491 -73.03457 35947 ft 481 kts 36°
2026-04-30 01:36 40.32016 -73.00591 35443 ft 480 kts 36°
2026-04-30 01:36 40.34538 -72.97727 34956 ft 480 kts 36°
2026-04-30 01:36 40.37068 -72.94851 34434 ft 482 kts 37°
2026-04-30 01:36 40.39562 -72.92010 33964 ft 480 kts 37°
2026-04-30 01:37 40.42084 -72.89134 33464 ft 480 kts 37°
2026-04-30 01:37 40.44637 -72.86221 32943 ft 480 kts 37°
2026-04-30 01:37 40.47120 -72.83384 32462 ft 479 kts 37°
2026-04-30 01:37 40.49641 -72.80503 31728 ft 482 kts 37°
2026-04-30 01:38 40.52176 -72.77607 30846 ft 483 kts 37°
2026-04-30 01:38 40.54704 -72.74709 29954 ft 480 kts 37°
2026-04-30 01:38 40.57214 -72.71828 29094 ft 477 kts 37°
2026-04-30 01:38 40.59708 -72.68962 28208 ft 476 kts 38°
2026-04-30 01:39 40.62187 -72.66106 27709 ft 465 kts 38°
2026-04-30 01:39 40.64564 -72.63368 27560 ft 447 kts 37°
2026-04-30 01:39 40.66937 -72.60643 27333 ft 460 kts 38°
2026-04-30 01:39 40.69367 -72.57845 27042 ft 467 kts 38°
2026-04-30 01:40 40.71860 -72.55101 26697 ft 466 kts 36°
2026-04-30 01:40 40.74376 -72.52411 26340 ft 465 kts 36°
2026-04-30 01:40 40.76878 -72.49719 25977 ft 463 kts 36°
2026-04-30 01:40 40.79366 -72.47034 25627 ft 461 kts 37°
2026-04-30 01:41 40.81722 -72.44187 25286 ft 458 kts 42°
2026-04-30 01:41 40.83973 -72.41216 24944 ft 456 kts 43°
2026-04-30 01:41 40.86215 -72.38264 24579 ft 454 kts 43°
2026-04-30 01:41 40.88439 -72.35333 24221 ft 451 kts 43°
2026-04-30 01:42 40.90626 -72.32392 23878 ft 447 kts 47°
2026-04-30 01:42 40.92334 -72.28995 23672 ft 438 kts 62°
2026-04-30 01:42 40.93608 -72.25445 23481 ft 416 kts 65°
2026-04-30 01:42 40.94775 -72.22020 23497 ft 409 kts 65°
2026-04-30 01:43 40.95982 -72.18563 23790 ft 423 kts 65°
2026-04-30 01:43 40.97239 -72.14975 23698 ft 434 kts 65°
2026-04-30 01:43 40.98516 -72.11326 23580 ft 439 kts 65°
2026-04-30 01:43 40.99792 -72.07692 23470 ft 432 kts 64°
2026-04-30 01:44 41.01055 -72.04099 23367 ft 430 kts 65°
2026-04-30 01:44 41.02316 -72.00504 23160 ft 431 kts 65°
2026-04-30 01:44 41.03576 -71.96914 22885 ft 429 kts 65°
2026-04-30 01:44 41.04833 -71.93332 22181 ft 427 kts 64°
2026-04-30 01:45 41.06366 -71.90014 21499 ft 419 kts 52°
2026-04-30 01:45 41.08212 -71.87065 20799 ft 413 kts 49°
2026-04-30 01:45 41.10061 -71.84173 20043 ft 408 kts 50°
2026-04-30 01:45 41.11874 -71.81316 19285 ft 403 kts 50°
2026-04-30 01:46 41.13661 -71.78490 18528 ft 397 kts 51°
2026-04-30 01:46 41.15417 -71.75704 17779 ft 391 kts 51°
2026-04-30 01:46 41.17149 -71.72953 17026 ft 386 kts 51°
2026-04-30 01:46 41.18859 -71.70231 16174 ft 383 kts 51°
2026-04-30 01:47 41.20556 -71.67520 15292 ft 380 kts 51°
2026-04-30 01:47 41.22235 -71.64831 14405 ft 375 kts 51°
2026-04-30 01:47 41.23858 -71.62240 13545 ft 357 kts 51°
2026-04-30 01:47 41.25403 -71.59779 12811 ft 338 kts 51°
2026-04-30 01:48 41.26869 -71.57437 12259 ft 320 kts 51°
2026-04-30 01:48 41.28270 -71.55189 11719 ft 315 kts 51°
2026-04-30 01:48 41.29643 -71.52981 11542 ft 306 kts 51°
2026-04-30 01:48 41.30997 -71.50804 11314 ft 305 kts 51°
2026-04-30 01:49 41.32344 -71.48635 11185 ft 302 kts 51°
2026-04-30 01:49 41.33683 -71.46476 11116 ft 303 kts 51°
2026-04-30 01:49 41.35003 -71.44334 11039 ft 304 kts 52°
2026-04-30 01:49 41.36369 -71.42137 11027 ft 302 kts 50°
2026-04-30 01:50 41.37772 -71.40088 11014 ft 305 kts 40°
2026-04-30 01:50 41.39649 -71.38806 10999 ft 306 kts 13°
2026-04-30 01:50 41.41756 -71.38787 10993 ft 305 kts 345°
2026-04-30 01:50 41.43667 -71.39956 11013 ft 302 kts 326°
2026-04-30 01:51 41.45454 -71.41477 10782 ft 307 kts 326°
2026-04-30 01:51 41.47253 -71.43003 10392 ft 307 kts 326°
2026-04-30 01:51 41.49044 -71.44527 9954 ft 304 kts 326°
2026-04-30 01:51 41.50810 -71.46037 9482 ft 301 kts 326°
2026-04-30 01:52 41.52564 -71.47547 8940 ft 300 kts 326°
2026-04-30 01:52 41.54301 -71.49050 8419 ft 294 kts 326°
2026-04-30 01:52 41.55981 -71.50508 7875 ft 282 kts 326°
2026-04-30 01:52 41.57594 -71.51914 7338 ft 272 kts 326°
2026-04-30 01:53 41.58637 -71.52820 6991 ft 267 kts 326°
2026-04-30 01:53 41.60703 -71.54621 6291 ft 267 kts 326°
2026-04-30 01:53 41.61740 -71.55529 5915 ft 271 kts 326°
2026-04-30 01:53 41.63316 -71.56911 5341 ft 267 kts 326°
2026-04-30 01:54 41.64848 -71.58263 4765 ft 259 kts 326°
2026-04-30 01:54 41.66332 -71.59582 4174 ft 254 kts 326°
2026-04-30 01:54 41.67778 -71.60879 3633 ft 246 kts 326°
2026-04-30 01:54 41.69148 -71.62111 3430 ft 229 kts 326°
2026-04-30 01:55 41.70465 -71.63294 3307 ft 229 kts 326°
2026-04-30 01:55 41.71777 -71.64477 3167 ft 225 kts 326°
2026-04-30 01:55 41.73069 -71.65649 3050 ft 223 kts 326°
2026-04-30 01:55 41.74343 -71.66804 2981 ft 221 kts 326°
2026-04-30 01:56 41.75613 -71.67955 3025 ft 221 kts 326°
2026-04-30 01:56 41.76892 -71.69113 3029 ft 223 kts 326°
2026-04-30 01:56 41.78176 -71.70278 3033 ft 224 kts 326°
2026-04-30 01:56 41.79465 -71.71445 3039 ft 223 kts 326°
2026-04-30 01:57 41.80752 -71.72611 3020 ft 224 kts 326°
2026-04-30 01:57 41.82081 -71.73687 2977 ft 223 kts 339°
2026-04-30 01:57 41.83595 -71.73856 3005 ft 220 kts 14°
2026-04-30 01:57 41.84885 -71.72830 3001 ft 219 kts 51°
2026-04-30 01:58 41.85607 -71.71049 3030 ft 218 kts 67°
2026-04-30 01:58 41.86232 -71.69191 3036 ft 219 kts 66°
2026-04-30 01:58 41.86873 -71.67332 2980 ft 219 kts 66°
2026-04-30 01:58 41.87509 -71.65491 2992 ft 217 kts 66°
2026-04-30 01:59 41.88768 -71.61803 2996 ft 218 kts 70°
2026-04-30 01:59 41.88935 -71.59849 2981 ft 216 kts 103°
2026-04-30 01:59 41.88240 -71.58078 2798 ft 219 kts 133°
2026-04-30 02:00 41.87144 -71.56695 2646 ft 213 kts 136°
2026-04-30 02:00 41.86103 -71.55372 2489 ft 199 kts 136°
2026-04-30 02:00 41.85080 -71.54205 2324 ft 189 kts 146°
2026-04-30 02:00 41.83943 -71.53360 2124 ft 187 kts 152°
2026-04-30 02:01 41.82791 -71.52560 1920 ft 184 kts 151°
2026-04-30 02:01 41.81688 -71.51738 1860 ft 181 kts 149°
2026-04-30 02:01 41.80594 -71.50886 1826 ft 183 kts 148°
2026-04-30 02:01 41.79501 -71.50013 1720 ft 182 kts 146°
2026-04-30 02:02 41.78482 -71.49012 1456 ft 181 kts 137°
2026-04-30 02:02 41.77573 -71.47946 1231 ft 166 kts 136°
2026-04-30 02:02 41.76730 -71.46972 961 ft 154 kts 136°
2026-04-30 02:02 41.75936 -71.46082 740 ft 143 kts 138°
2026-04-30 02:03 41.75175 -71.45285 564 ft 134 kts 140°
2026-04-30 02:03 41.74442 -71.44561 415 ft 129 kts 140°
2026-04-30 02:03 41.73740 -71.43824 249 ft 128 kts 140°
2026-04-30 02:03 41.73044 -71.43090 92 ft 126 kts 140°
2026-04-30 02:04 41.72416 -71.42422 51 ft 101 kts 141°
2026-04-30 02:04 41.71991 -71.41973 47 ft 42 kts 141°
2026-04-30 02:04 41.71856 -71.41881 50 ft 15 kts 198°
2026-04-30 02:04 41.71864 -71.41984 47 ft 18 kts 319°
2026-04-30 02:05 41.71968 -71.42095 51 ft 19 kts 323°
2026-04-30 02:05 41.72074 -71.42207 53 ft 22 kts 321°
2026-04-30 02:05 41.72195 -71.42342 56 ft 21 kts 310°
2026-04-30 02:05 41.72288 -71.42474 53 ft 18 kts 322°
2026-04-30 02:06 41.72368 -71.42557 49 ft 14 kts 322°
2026-04-30 02:06 41.72446 -71.42660 52 ft 18 kts 308°
2026-04-30 02:06 41.72509 -71.42789 53 ft 17 kts 299°
2026-04-30 02:06 41.72554 -71.42924 52 ft 14 kts 277°
2026-04-30 02:07 41.72548 -71.43089 55 ft 20 kts 265°
2026-04-30 02:07 41.72540 -71.43269 59 ft 14 kts 278°
2026-04-30 02:07 41.72554 -71.43312 59 ft 4 kts 305°
2026-04-30 02:07 41.72590 -71.43325 53 ft 10 kts 11°
2026-04-30 02:08 41.72660 -71.43274 54 ft 9 kts 30°
2026-04-30 02:08 41.72692 -71.43297 57 ft 6 kts 283°
2026-04-30 02:08 41.72694 -71.43351 59 ft 2 kts 276°
2026-04-30 02:08 41.72695 -71.43363 59 ft 0 kts 277°